Probability
0 0 0 0 0 0 0 0 0 0 0 0 0 0 0 0 0 0 0 0 0 0 0 0 0 0 0 0 0 0 0 0 0 0 0 0 0 0 0 0 0 0 0
0 0 0 0 0 0 0 0 0 0 0 0 0 0 0 0 0 0 0 0 0 0 0 0 0 0 0 0 0 0 0 0 0 0 0 0 0 0 0 0 0 0 0
0 0 0 0 0 0 0 0 0 0 0 0 0 0 0 0 0 0 0 0 0 0 0 0 0 0 0 0 0 0 0 0 0 0 0 0 0 0 0 0 0 0 0
0 0 0 0 0 0 0 0 0 0 0 0 0 0 0 0 0 0 0 0 0 0 0 0 0 0 0 0 0 0 0 0 0 0 0 0 0 0 0 0 0 0 0
0 0 0 0 0 0 0 0 0 0 0 0 0 0 0 0 0 0 0 0 0 0 0 0 0 0 0 0 0 0 0 0 0 0 0 0 0 0 0 0 0 0 0
0 0 0 0 0 0 0 0 0 0 0 0 0 0 0 0 0 0 0 0 0 0 0 0 0 0 0 0 0 0 0 0 0 0 0 0 0 0 0 0 0 0 0
0 0 0 0 0 0 0 0 0 0 0 0 0 0 0 0 0 0 0 0 0 0 0 0 0 0 0 0 0 0 0 0 0 0 0 0 0 0 0 0 0 0 0
0 0 0 0 0 0 0 0 0 0 0 0 0 0 0 0 0 0 0 0 0 0 0 0 0 0 0 0 0 0 0 0 0 0 0 0 0 0 0 0 0 0 0
0 0 0 0 0 0 0 0 0 0 0 0 0 0 0 0 0 0 0 0 0 0 0 0 0 0 0 0 0 0 0 0 0 0 0 0 0 0 0 0 0 0 0
0 0 0 0 0 0 0 0 0 0 0 0 0 0 0 0 0 0 0 0 0 0 0 0 0 0 0 0 0 0 0 0 0 0 0 0 0 0 0 0 0 0 0
0 0 0 0 0 0 0 0 0 0 0 0 0 0 0 0 0 0 0 0 0 0 0 0 0 0 0 0 0 0 0 0 0 0 0 0 0 0 0 0 0 0 0
0 0 0 0 0 0 0 0 0 0 0 0 0 0 0 0 0 0 0 0 0 0 0 0 0 0 0 0 0 0 0 0 0 0 0 0 0 0 0 0 0 0 0
0 0 0 0 0 0 0 0 0 0 0 0 0 0 0 0 0 0 0 0 0 0 0 0 0 0 0 0 0 0 0 0 0 0 0 0 0 0 0 0 0 0 0
0 0 0 0 0 0 0 0 0 0 0 0 0 0 0 0 0 0 0 0 0 0 0 0 0 0 0 0 0 0 0 0 0 0 0 0 0 0 0 0 0 0 0
0 0 0 0 0 0 0 0 0 0 0 0 0 0 0 0 0 0 0 0 0 0 0 0 0 0 0 0 0 0 0 0 0 0 0 0 0 0 0 0 0 0 0
0 0 0 0 0 0 0 0 0 0 0 0 0 0 0 0 0 0 0 0 0 0 0 0 0 0 0 0 0 0 0 0 0 0 0 0 0 0 0 0 0 0 0
0 0 0 0 0 0 0 0 0 0 0 0 0 0 0 0 0 0 0 0 0 0 0 0 0 0 0 0 0 0 0 0 0 0 0 0 0 0 0 0 0 0 0
0 0 0 0 0 0 0 0 0 0 0 0 0 0 0 0 0 0 0 0 0 0 0 0 0 0 0 0 0 0 0 0 0 0 0 0 0 0 0 0 0 0 0
0 0 0 0 0 0 0 0 0 0 0 0 0 0 0 0 0 0 0 0 0 0 0 0 0 0 0 0 0 0 0 0 0 0 0 0 0 0 0 0 0 0 0
0 0 0 0 0 0 0 0 0 0 0 0 0 0 0 0 0 0 0 0 0 0 0 0 0 0 0 0 0 0 0 0 0 0 0 0 0 0 0 0 0 0 0
0 0 0 0 0 0 0 0 0 0 0 0 0 0 0 0 0 0 0 0 0 0 0 0 0 0 0 0 0 0 0 0 0 0 0 0 0 0 0 0 0 0 0
0 0 0 0 0 0 0 0 0 0 0 0 0 0 0 0 0 0 0 0 0 0 0 0 0 0 0 0 0 0 0 0 0 0 0 0 0 0 0 0 0 0 0
0 0 0 0 0 0 0 0 0 0 0 0 0 0 0 0 0 0 0 0 0 0 0 0 0 0 0 0 0 0 0 0 0 0 0 0 0 0 0 0 0 0 0
0 0 0 0 0 0 0 0 0 0 0 0 0 0 0 0 0 0 0 0 0 0 0 0 0 0 0 0 0 0 0 0 0 0 0 0 0 0 0 0 0 0 0
0 0 0 0 0 0 0 0 0 0 0 0 0 0 0 0 0 0 0 0 0 0 0 0 0 0 0 0 0 0 0 0 0 0 0 0 0 0 0 0 0 0 0
0 0 0 0 0 0 0 0 0 0 0 0 0 0 0 0 0 0 0 0 0 0 0 0 0 0 0 0 0 0 0 0 0 0 0 0 0 0 0 0 0 0 0
Height
5795 5796 5796 5796 5796 5796 5796 5795 5795 5794 5793 5791 5789 5788 5786 5784 5781 5779 5777 5774 5771 5768 5765 5761 5758 5754 5750 5746 5742 5738 5734 5729 5724 5719 5714 5709 5705 5700 5695 5690 5686 5681 5676
5789 5789 5789 5790 5789 5789 5788 5788 5787 5786 5784 5782 5780 5778 5776 5773 5771 5769 5766 5763 5760 5756 5753 5749 5745 5741 5737 5732 5728 5723 5718 5713 5708 5703 5697 5692 5688 5683 5678 5674 5669 5665 5660
5781 5782 5782 5782 5781 5781 5780 5779 5778 5776 5775 5772 5770 5768 5765 5763 5761 5758 5755 5752 5748 5745 5741 5737 5732 5728 5723 5718 5713 5708 5702 5697 5692 5687 5681 5676 5672 5668 5664 5659 5655 5651 5646
5774 5774 5774 5773 5773 5772 5771 5770 5768 5767 5765 5763 5760 5758 5756 5753 5750 5747 5744 5741 5737 5733 5729 5724 5719 5714 5709 5704 5699 5694 5688 5683 5678 5673 5668 5663 5659 5655 5651 5647 5643 5639 5636
5766 5766 5765 5765 5764 5763 5762 5761 5759 5757 5755 5753 5751 5748 5746 5743 5740 5737 5734 5730 5726 5722 5717 5712 5707 5702 5696 5691 5687 5681 5676 5671 5667 5662 5657 5653 5649 5645 5641 5637 5634 5630 5627
5757 5757 5757 5756 5755 5754 5753 5751 5749 5748 5746 5744 5742 5739 5736 5734 5730 5727 5723 5720 5715 5711 5706 5701 5696 5691 5686 5681 5676 5671 5667 5663 5658 5654 5650 5646 5642 5638 5634 5631 5627 5624 5621
5749 5748 5748 5747 5746 5745 5744 5742 5740 5738 5737 5734 5732 5730 5727 5724 5721 5717 5713 5710 5706 5701 5697 5692 5687 5682 5678 5673 5669 5665 5661 5657 5653 5650 5646 5642 5638 5634 5630 5626 5623 5619 5616
5741 5740 5740 5739 5738 5737 5735 5733 5732 5730 5728 5726 5723 5721 5718 5715 5712 5708 5705 5701 5697 5693 5689 5685 5681 5676 5672 5668 5664 5661 5657 5653 5650 5646 5642 5639 5635 5631 5627 5623 5620 5616 5612
5733 5733 5732 5731 5730 5728 5727 5725 5724 5722 5720 5718 5715 5713 5710 5707 5704 5701 5697 5694 5690 5687 5683 5679 5676 5672 5668 5664 5661 5657 5654 5651 5647 5643 5640 5636 5632 5628 5624 5621 5617 5613 5609
5726 5725 5724 5723 5722 5721 5720 5718 5717 5715 5713 5711 5708 5706 5703 5700 5697 5694 5691 5687 5684 5681 5678 5675 5671 5668 5665 5662 5658 5655 5652 5648 5645 5641 5638 5634 5630 5626 5622 5618 5614 5610 5606
5720 5719 5718 5716 5715 5714 5713 5712 5710 5708 5706 5704 5702 5700 5697 5694 5691 5688 5685 5682 5679 5677 5674 5671 5668 5665 5662 5659 5656 5653 5649 5646 5643 5639 5636 5632 5628 5624 5620 5617 5613 5609 5604
5713 5713 5711 5710 5709 5708 5707 5706 5704 5702 5700 5699 5697 5694 5692 5689 5687 5684 5681 5678 5676 5673 5671 5668 5665 5663 5660 5657 5654 5651 5648 5645 5641 5638 5634 5630 5627 5623 5619 5615 5611 5607 5603
5708 5707 5706 5705 5703 5702 5701 5700 5699 5697 5695 5694 5692 5690 5688 5685 5683 5680 5678 5675 5673 5671 5668 5666 5663 5661 5658 5655 5652 5649 5646 5643 5639 5636 5632 5629 5625 5622 5618 5614 5610 5606 5603
5703 5702 5701 5699 5698 5697 5696 5695 5694 5693 5691 5689 5688 5686 5684 5682 5680 5677 5675 5673 5671 5669 5666 5664 5661 5659 5656 5653 5651 5647 5644 5641 5638 5634 5631 5627 5624 5620 5617 5613 5610 5606 5603
5697 5696 5695 5694 5693 5692 5691 5690 5689 5688 5687 5686 5684 5682 5680 5678 5676 5675 5673 5671 5669 5667 5665 5662 5660 5658 5655 5652 5649 5646 5643 5639 5636 5633 5629 5626 5622 5619 5616 5613 5609 5606 5603
5692 5691 5690 5688 5687 5687 5686 5686 5685 5684 5683 5682 5680 5679 5677 5676 5674 5672 5671 5669 5667 5665 5663 5661 5659 5656 5654 5651 5648 5644 5641 5638 5634 5631 5628 5625 5622 5619 5615 5612 5610 5607 5604
5687 5686 5685 5684 5683 5683 5683 5682 5682 5681 5680 5679 5678 5676 5675 5674 5672 5671 5669 5667 5666 5664 5662 5660 5658 5655 5652 5649 5646 5643 5640 5636 5633 5630 5627 5624 5621 5618 5615 5612 5610 5607 5604
5683 5682 5681 5681 5680 5680 5679 5679 5679 5678 5678 5677 5676 5674 5673 5672 5671 5669 5668 5666 5665 5663 5661 5659 5656 5654 5651 5648 5645 5641 5638 5635 5632 5629 5626 5623 5620 5617 5615 5612 5610 5608 5605
5680 5679 5678 5678 5677 5677 5677 5677 5676 5676 5675 5675 5674 5673 5672 5671 5670 5668 5667 5665 5664 5662 5660 5657 5655 5652 5649 5647 5643 5640 5637 5634 5631 5628 5625 5623 5620 5617 5615 5613 5610 5608 5606
5678 5677 5677 5676 5676 5675 5675 5675 5675 5674 5674 5673 5672 5672 5671 5670 5669 5667 5666 5664 5663 5661 5658 5656 5654 5651 5648 5645 5643 5640 5637 5634 5631 5628 5625 5622 5620 5618 5615 5613 5611 5609 5607
5677 5677 5676 5675 5675 5674 5674 5674 5673 5673 5672 5672 5671 5670 5670 5669 5668 5667 5665 5664 5662 5660 5658 5655 5653 5650 5647 5645 5642 5639 5636 5633 5630 5628 5625 5623 5620 5618 5616 5614 5612 5610 5608
5676 5676 5675 5675 5674 5674 5673 5673 5673 5672 5671 5671 5670 5670 5669 5668 5667 5666 5665 5663 5661 5659 5657 5655 5652 5650 5647 5644 5641 5639 5636 5633 5630 5628 5625 5623 5621 5619 5617 5615 5614 5612 5610
5676 5675 5675 5674 5674 5673 5673 5672 5672 5672 5671 5670 5670 5669 5669 5668 5667 5666 5664 5663 5661 5659 5657 5654 5652 5649 5647 5644 5641 5638 5636 5633 5631 5628 5626 5624 5622 5620 5618 5617 5615 5614 5612
5676 5675 5674 5674 5673 5673 5672 5672 5672 5671 5671 5670 5670 5669 5669 5668 5667 5666 5664 5662 5661 5659 5657 5654 5652 5650 5647 5644 5642 5639 5636 5634 5631 5629 5627 5625 5623 5622 5620 5619 5617 5616 5614
5677 5675 5675 5674 5673 5673 5673 5672 5672 5671 5671 5671 5670 5669 5669 5668 5667 5666 5664 5663 5661 5659 5657 5655 5652 5650 5648 5645 5643 5640 5637 5635 5633 5631 5629 5627 5625 5624 5622 5621 5620 5618 5617
5679 5677 5676 5675 5674 5674 5674 5673 5673 5672 5672 5671 5671 5670 5669 5669 5668 5666 5665 5663 5662 5660 5658 5656 5653 5651 5649 5646 5644 5642 5639 5637 5635 5633 5631 5630 5628 5627 5625 5624 5623 5622 5621
Wind_Speed
28 28 28 29 29 29 30 31 32 33 33 34 35 35 36 36 37 38 38 39 41 42 44 44 45 46 48 50 51 52 53 54 56 57 58 59 61 62 62 61 61 61 61
30 30 30 31 31 32 33 34 35 35 36 37 37 38 38 38 39 40 40 41 43 44 45 45 46 48 49 51 52 53 54 55 55 55 56 57 57 57 58 57 57 56 56
30 31 32 32 33 34 34 35 37 37 38 38 39 39 39 40 40 41 41 42 43 44 45 46 47 48 49 49 50 50 51 51 51 52 52 52 51 51 50 50 50 49 49
32 33 33 34 35 36 37 37 38 39 39 40 40 40 39 40 40 40 41 41 42 43 44 44 45 45 45 45 44 44 45 45 45 44 44 44 44 44 43 42 42 41 40
33 34 34 35 35 36 36 37 37 38 39 39 38 38 38 38 38 39 39 40 40 41 41 41 41 40 40 40 39 39 38 37 37 37 36 35 34 33 33 33 33 32 31
33 34 34 35 35 35 36 36 36 36 37 37 36 36 36 36 37 37 37 38 38 37 37 36 36 35 35 34 33 32 31 30 29 28 26 26 26 26 25 25 25 24 24
31 32 32 33 32 33 33 33 33 34 34 34 33 34 34 34 35 35 35 34 33 32 31 31 30 29 27 26 26 25 24 22 22 21 21 21 22 22 22 22 22 22 21
28 29 29 30 30 31 31 31 31 31 31 30 31 31 32 32 32 31 29 28 28 27 27 26 24 23 22 22 21 20 19 19 18 19 19 19 19 19 19 19 19 20 21
26 26 27 27 28 28 28 28 28 27 27 28 28 29 28 27 27 26 26 25 24 24 23 22 21 20 20 19 19 18 18 17 17 17 18 18 18 18 18 19 19 19 20
25 25 25 25 25 25 25 24 24 24 25 25 25 25 24 24 24 23 23 22 21 20 19 19 19 19 19 18 18 17 17 17 17 17 18 19 19 18 18 18 18 19 19
23 23 23 22 22 22 22 22 22 22 22 21 21 21 21 21 21 20 19 18 17 17 18 18 18 18 17 17 16 16 16 16 17 17 18 18 18 17 17 18 18 18 18
20 20 20 20 20 20 19 19 19 19 19 19 19 18 17 18 17 16 15 15 15 15 16 16 16 16 16 15 15 15 15 16 16 17 17 17 17 17 17 17 17 17 17
17 18 18 18 18 18 18 18 18 17 17 17 16 16 16 15 14 13 13 13 13 13 14 14 14 14 15 14 14 15 15 16 16 16 17 17 16 16 16 16 16 16 16
17 17 17 17 16 16 16 16 16 15 15 14 14 14 14 13 12 11 11 11 11 12 12 13 13 13 13 14 14 15 15 15 16 16 16 15 15 15 15 15 15 15 15
16 16 16 16 16 15 15 14 14 13 13 13 13 12 12 11 10 10 9 10 10 11 11 12 12 13 13 13 14 14 15 15 16 16 16 15 15 15 14 14 14 14 15
14 14 15 14 14 13 13 13 12 12 11 11 11 10 9 8 8 8 8 9 10 10 11 11 12 12 13 13 14 14 15 15 15 15 15 15 14 14 14 13 13 13 14
13 12 12 11 11 11 10 10 10 9 9 9 8 8 7 7 7 7 7 8 9 10 11 11 12 13 13 14 14 14 15 15 15 15 14 14 13 13 13 12 12 12 13
10 10 9 9 9 9 8 8 7 7 7 7 6 6 6 6 6 6 7 8 9 10 11 12 13 13 13 14 14 14 15 15 15 14 14 13 13 12 12 12 12 12 12
7 6 6 6 6 6 7 6 6 6 6 5 5 5 5 5 5 6 7 8 9 10 11 12 12 13 13 14 14 14 14 14 14 14 13 12 12 11 11 11 11 12 12
5 4 4 4 4 4 4 4 4 4 4 4 4 4 4 4 5 6 7 8 10 11 11 11 12 13 13 13 14 14 14 14 13 13 13 12 11 10 10 10 11 11 12
4 4 3 3 3 3 3 3 3 3 3 3 3 3 4 4 5 6 7 8 10 10 11 11 12 12 13 13 13 13 13 13 13 12 12 11 10 9 9 9 10 11 11
5 4 3 3 3 3 2 2 2 2 2 3 2 3 4 4 5 6 7 8 9 10 10 11 12 12 13 13 13 13 13 13 12 12 11 10 10 9 9 9 9 10 10
5 4 3 3 3 2 2 2 2 2 2 3 3 3 3 4 5 6 7 8 9 9 10 11 11 12 12 13 13 13 12 12 12 11 11 10 10 9 9 9 9 9 10
6 4 4 3 3 2 2 2 2 2 2 3 3 3 3 4 5 6 7 8 8 9 10 10 11 12 12 12 12 12 12 12 11 10 10 10 10 10 9 9 10 10 10
9 7 5 4 4 3 3 3 3 3 3 3 3 3 4 4 5 6 7 7 8 9 9 10 11 11 12 12 12 12 12 12 11 11 10 10 11 11 11 11 11 11 12
12 9 7 7 6 5 5 5 5 4 4 4 4 4 4 5 5 6 7 7 8 9 10 10 11 11 12 12 12 12 13 13 12 12 12 12 12 13 13 13 13 14 14
Wind_Direction
268 272 275 277 280 281 283 284 285 285 287 288 290 291 290 291 292 293 293 293 293 293 293 292 291 290 288 288 287 286 285 284 282 281 281 281 280 280 281 281 280 280 280
269 272 273 275 276 279 281 282 284 286 288 289 290 292 292 293 294 294 294 294 294 294 293 293 292 291 289 288 287 287 286 285 284 283 282 282 282 282 282 283 283 283 284
269 271 274 275 277 279 281 283 284 286 288 289 290 292 292 294 294 294 294 294 294 294 294 294 293 292 291 290 289 289 288 287 285 285 285 284 284 285 286 287 288 288 289
269 271 273 275 277 279 281 282 284 286 288 289 290 292 292 294 294 294 295 296 296 296 295 295 294 294 293 293 292 292 292 291 291 290 290 289 290 290 290 291 292 293 294
270 272 274 276 278 279 281 283 284 286 288 289 291 292 293 294 294 295 296 297 298 297 297 296 296 295 295 295 295 296 296 297 297 296 297 297 298 298 298 298 298 298 299
271 274 276 277 279 281 282 284 285 287 288 289 291 292 293 294 295 296 297 298 298 298 298 299 299 299 300 301 301 301 301 302 303 305 306 307 308 308 308 307 306 306 307
272 275 276 277 279 280 282 283 285 287 288 290 291 292 294 295 295 296 298 298 299 300 302 304 305 306 308 309 309 309 310 311 312 313 314 315 316 317 316 316 315 314 314
274 275 277 278 279 281 282 283 285 287 289 290 291 293 295 295 296 298 299 300 302 303 306 308 310 313 316 316 316 317 319 320 320 321 322 324 325 325 325 324 323 323 324
276 278 279 280 281 282 282 284 285 287 289 291 292 294 295 296 298 300 301 303 305 306 309 311 313 316 319 320 320 322 323 324 325 327 328 329 329 330 330 331 331 331 332
277 278 279 279 280 282 283 284 285 286 288 290 292 294 295 298 300 301 303 304 307 309 312 313 315 317 319 321 323 325 326 328 330 331 332 333 333 334 335 336 337 337 338
277 278 279 279 280 281 282 283 284 287 289 291 293 295 297 300 303 304 305 307 310 313 315 318 319 320 322 324 326 328 329 331 332 333 334 336 338 339 340 342 342 343 345
277 278 280 281 282 283 283 284 286 287 289 290 292 295 299 303 306 307 309 311 314 317 319 321 322 325 327 329 331 332 333 333 333 335 336 338 339 340 343 345 347 350 352
280 281 282 282 282 282 282 283 286 287 288 290 293 297 300 304 306 310 314 317 321 322 323 325 329 331 333 334 335 336 336 336 336 337 338 340 341 343 345 348 352 356 359
283 282 281 281 280 280 280 282 285 288 291 293 296 299 300 302 304 310 317 324 327 329 330 332 334 337 338 339 338 337 337 338 340 341 341 343 345 348 350 353 356 1 3
285 283 281 279 278 278 279 282 284 289 294 297 299 299 301 303 305 311 319 326 329 331 333 335 337 338 339 339 338 339 340 342 343 345 346 347 349 352 355 357 0 3 5
286 284 282 281 279 277 278 280 284 288 293 298 300 302 305 308 312 317 321 326 331 333 335 336 338 339 340 340 341 342 342 343 345 347 349 350 351 354 357 0 2 4 7
288 287 284 283 281 279 280 283 287 291 296 300 303 306 309 316 323 325 327 332 334 335 336 337 338 338 339 340 341 343 344 345 347 349 350 352 354 357 360 2 3 5 8
295 291 285 281 279 278 281 284 288 293 297 301 304 308 315 322 329 331 331 333 336 337 338 338 339 339 340 343 344 345 347 348 350 351 352 355 357 360 3 5 6 7 9
311 304 294 286 279 276 278 279 284 290 297 303 306 310 317 324 331 336 337 337 338 339 340 340 341 342 343 344 347 348 349 350 352 354 355 357 359 1 5 9 11 11 11
327 323 318 307 294 284 280 280 284 291 300 305 309 315 322 328 333 337 339 340 341 342 342 342 344 346 346 348 350 351 352 353 355 357 358 360 3 6 8 13 15 15 16
346 345 340 329 317 305 299 299 302 303 312 317 318 324 332 335 338 340 341 344 345 346 347 348 349 350 351 352 354 354 355 357 358 360 2 5 9 12 15 18 19 20 22
348 352 347 336 329 321 315 318 326 332 340 347 346 344 345 345 346 346 347 347 348 350 352 354 355 355 356 357 358 359 359 0 3 5 8 12 16 19 23 26 27 27 28
357 350 343 339 333 322 317 331 341 348 357 2 359 357 356 354 354 354 353 352 353 356 358 358 359 360 1 1 1 2 3 6 9 13 17 21 25 29 33 36 36 37 38
19 11 3 359 357 359 5 9 10 14 17 13 11 11 10 5 1 360 359 358 360 3 3 2 3 5 6 7 8 9 11 13 17 21 26 30 34 39 44 46 46 47 49
34 32 29 30 33 37 38 38 40 42 39 33 29 25 23 18 13 10 8 8 9 10 10 10 10 12 13 15 17 20 23 26 30 34 39 43 46 50 53 55 57 59 61
37 38 43 48 51 52 51 52 54 55 52 47 43 41 37 33 27 22 19 17 17 17 17 17 19 20 22 24 28 31 34 38 42 46 49 53 58 62 64 65 66 68 70